Location: Heilbronn
(49.1548°N, 9.2780°E)
Time: 11:54:00
(UTC+02:00)

ISS - Visible Passes

Search period start: 20 May 2018 00:00
Search period end: 30 May 2018 00:00
Orbit: 402 x 407 km, 51.6° (Epoch: 20 May)

Date Brightness Start Highest point End Pass type
(mag) Time Alt. Az. Time Alt. Az. Time Alt. Az.
20 May -1.7 00:06:25 17° ENE 00:06:25 17° ENE 00:07:17 10° ENE visible
20 May -3.2 01:38:58 25° WNW 01:40:36 55° N 01:43:49 10° ENE visible
20 May -3.6 03:14:03 10° WNW 03:17:20 69° NNE 03:20:35 10° E visible
20 May -3.1 04:50:40 10° W 04:53:41 34° SSW 04:56:40 10° SSE visible
20 May -3.5 23:08:51 10° SW 23:11:56 40° SSE 23:15:02 10° ENE visible
21 May -3.5 00:45:06 10° W 00:48:21 64° NNW 00:51:37 10° ENE visible
21 May -3.2 02:21:51 10° WNW 02:25:05 57° N 02:28:19 10° E visible
21 May -3.8 03:58:23 10° WNW 04:01:36 53° SSW 04:04:46 10° SE visible
21 May -2.8 22:17:07 10° SSW 22:19:52 25° SE 22:22:38 10° E visible
21 May -3.8 23:52:50 10° WSW 23:56:07 81° NNW 23:59:24 10° ENE visible
22 May -3.1 01:29:35 10° WNW 01:32:48 52° N 01:36:01 10° E visible
22 May -4.0 03:06:09 10° WNW 03:09:25 80° SSW 03:12:41 10° ESE visible
22 May -2.3 04:43:13 10° W 04:45:31 18° SW 04:47:50 10° S visible
22 May -4.0 23:00:39 10° WSW 23:03:55 72° SSE 23:07:10 10° ENE visible
23 May -3.1 00:37:17 10° W 00:40:30 53° N 00:43:43 10° ENE visible
23 May -3.7 02:13:56 10° WNW 02:17:12 76° NNE 02:20:29 10° ESE visible
23 May -3.0 03:50:37 10° W 03:53:30 29° SW 03:56:22 10° SSE visible
23 May -3.6 22:08:35 10° SW 22:11:45 47° SSE 22:14:54 10° ENE visible
23 May -3.3 23:44:58 10° W 23:48:12 60° N 23:51:28 10° ENE visible
24 May -3.4 01:21:41 10° WNW 01:24:56 61° N 01:27:49 13° E visible
24 May -2.8 02:58:14 10° WNW 03:00:12 30° W 03:00:12 30° W visible
24 May -3.6 22:52:39 10° WSW 22:55:55 74° NNW 22:59:12 10° ENE visible
25 May -3.1 00:29:24 10° WNW 00:32:38 54° N 00:35:35 12° E visible
25 May -3.0 02:05:57 10° WNW 02:08:09 38° W 02:08:09 38° W visible
25 May -3.9 22:00:23 10° WSW 22:03:39 82° SSE 22:06:56 10° ENE visible
25 May -3.0 23:37:04 10° W 23:40:17 52° N 23:43:31 10° ENE visible
26 May -3.9 01:13:41 10° WNW 01:16:58 84° NNE 01:17:03 82° NE visible
26 May -3.1 22:44:43 10° W 22:47:57 57° N 22:51:12 10° ENE visible
27 May -3.5 00:21:24 10° WNW 00:24:40 65° NNE 00:26:10 29° E visible
27 May -1.6 01:57:59 10° WNW 01:58:47 16° W 01:58:47 16° W visible
27 May -3.4 21:52:21 10° W 21:55:37 68° NNW 21:58:53 10° ENE visible
27 May -3.2 23:29:06 10° WNW 23:32:20 55° N 23:35:24 11° E visible
28 May -3.1 01:05:38 10° WNW 01:08:01 41° W 01:08:01 41° W visible
28 May -3.0 22:36:45 10° WNW 22:39:58 52° N 22:43:11 10° E visible
29 May -4.0 00:13:19 10° WNW 00:16:37 88° SSW 00:17:18 53° ESE visible
29 May -3.6 23:21:01 10° WNW 23:24:17 70° NNE 23:26:37 18° E visible
